Year,Month,Day,Hour,Minute,Value (Times are PST for temperature in C)
2022,07,25,00,00,18.90
2022,07,25,00,01,18.90
2022,07,25,00,02,18.90
2022,07,25,00,03,18.80
2022,07,25,00,04,18.80
2022,07,25,00,05,18.80
2022,07,25,00,06,18.80
2022,07,25,00,07,18.80
2022,07,25,00,08,18.80
2022,07,25,00,09,18.90
2022,07,25,00,10,18.90
2022,07,25,00,11,18.90
2022,07,25,00,12,18.90
2022,07,25,00,13,18.90
2022,07,25,00,14,18.80
2022,07,25,00,15,18.80
2022,07,25,00,16,18.80
2022,07,25,00,17,18.80
2022,07,25,00,18,18.80
2022,07,25,00,19,18.80
2022,07,25,00,20,18.80
2022,07,25,00,21,18.80
2022,07,25,00,22,18.80
2022,07,25,00,23,18.80
2022,07,25,00,24,18.80
2022,07,25,00,25,18.80
2022,07,25,00,26,18.80
2022,07,25,00,27,18.80
2022,07,25,00,28,18.80
2022,07,25,00,29,18.80
2022,07,25,00,30,18.80
2022,07,25,00,31,18.80
2022,07,25,00,32,18.80
2022,07,25,00,33,18.80
2022,07,25,00,34,18.70
2022,07,25,00,35,18.70
2022,07,25,00,36,18.70
2022,07,25,00,37,18.70
2022,07,25,00,38,18.70
2022,07,25,00,39,18.70
2022,07,25,00,40,18.70
2022,07,25,00,41,18.70
2022,07,25,00,42,18.60
2022,07,25,00,43,18.60
2022,07,25,00,44,18.60
2022,07,25,00,45,18.60
2022,07,25,00,46,18.60
2022,07,25,00,47,18.60
2022,07,25,00,48,18.60
2022,07,25,00,49,18.60
2022,07,25,00,50,18.60
2022,07,25,00,51,18.60
2022,07,25,00,52,18.60
2022,07,25,00,53,18.60
2022,07,25,00,54,18.60
2022,07,25,00,55,18.60
2022,07,25,00,56,18.50
2022,07,25,00,57,18.50
2022,07,25,00,58,18.50
2022,07,25,00,59,18.40
2022,07,25,01,00,18.40
2022,07,25,01,01,18.40
2022,07,25,01,02,18.40
2022,07,25,01,03,18.40
2022,07,25,01,04,18.40
2022,07,25,01,05,18.40
2022,07,25,01,06,18.40
2022,07,25,01,07,18.40
2022,07,25,01,08,18.40
2022,07,25,01,09,18.40
2022,07,25,01,10,18.40
2022,07,25,01,11,18.40
2022,07,25,01,12,18.40
2022,07,25,01,13,18.40
2022,07,25,01,14,18.40
2022,07,25,01,15,18.30
2022,07,25,01,16,18.30
2022,07,25,01,17,18.30
2022,07,25,01,18,18.30
2022,07,25,01,19,18.30
2022,07,25,01,20,18.30
2022,07,25,01,21,18.30
2022,07,25,01,22,18.30
2022,07,25,01,23,18.20
2022,07,25,01,24,18.20
2022,07,25,01,25,18.20
2022,07,25,01,26,18.20
2022,07,25,01,27,18.20
2022,07,25,01,28,18.20
2022,07,25,01,29,18.20
2022,07,25,01,30,18.20
2022,07,25,01,31,18.20
2022,07,25,01,32,18.20
2022,07,25,01,33,18.20
2022,07,25,01,34,18.20
2022,07,25,01,35,18.20
2022,07,25,01,36,18.20
2022,07,25,01,37,18.20
2022,07,25,01,38,18.20
2022,07,25,01,39,18.20
2022,07,25,01,40,18.20
2022,07,25,01,41,18.20
2022,07,25,01,42,18.10
2022,07,25,01,43,18.10
2022,07,25,01,44,18.10
2022,07,25,01,45,18.10
2022,07,25,01,46,18.10
2022,07,25,01,47,18.10
2022,07,25,01,48,18.10
2022,07,25,01,49,18.10
2022,07,25,01,50,18.10
2022,07,25,01,51,18.10
2022,07,25,01,52,18.10
2022,07,25,01,53,18.10
2022,07,25,01,54,18.10
2022,07,25,01,55,18.00
2022,07,25,01,56,18.00
2022,07,25,01,57,18.00
2022,07,25,01,58,18.00
2022,07,25,01,59,18.00
2022,07,25,02,00,18.00
2022,07,25,02,01,18.00
2022,07,25,02,02,18.00
2022,07,25,02,03,18.00
2022,07,25,02,04,18.00
2022,07,25,02,05,18.00
2022,07,25,02,06,18.10
2022,07,25,02,07,18.10
2022,07,25,02,08,18.10
2022,07,25,02,09,18.10
2022,07,25,02,10,18.00
2022,07,25,02,11,18.00
2022,07,25,02,12,18.00
2022,07,25,02,13,18.00
2022,07,25,02,14,18.00
2022,07,25,02,15,18.00
2022,07,25,02,16,18.00
2022,07,25,02,17,18.00
2022,07,25,02,18,18.00
2022,07,25,02,19,18.00
2022,07,25,02,20,17.90
2022,07,25,02,21,17.90
2022,07,25,02,22,17.90
2022,07,25,02,23,17.90
2022,07,25,02,24,17.90
2022,07,25,02,25,17.90
2022,07,25,02,26,17.90
2022,07,25,02,27,17.90
2022,07,25,02,28,17.90
2022,07,25,02,29,17.90
2022,07,25,02,30,17.90
2022,07,25,02,31,17.90
2022,07,25,02,32,17.90
2022,07,25,02,33,17.90
2022,07,25,02,34,17.90
2022,07,25,02,35,17.90
2022,07,25,02,36,17.90
2022,07,25,02,37,17.90
2022,07,25,02,38,17.90
2022,07,25,02,39,17.90
2022,07,25,02,40,17.80
2022,07,25,02,41,17.80
2022,07,25,02,42,17.80
2022,07,25,02,43,17.80
2022,07,25,02,44,17.80
2022,07,25,02,45,17.80
2022,07,25,02,46,17.80
2022,07,25,02,47,17.80
2022,07,25,02,48,17.80
2022,07,25,02,49,17.80
2022,07,25,02,50,17.80
2022,07,25,02,51,17.80
2022,07,25,02,52,17.70
2022,07,25,02,53,17.70
2022,07,25,02,54,17.70
2022,07,25,02,55,17.70
2022,07,25,02,56,17.70
2022,07,25,02,57,17.70
2022,07,25,02,58,17.70
2022,07,25,02,59,17.70
2022,07,25,03,00,17.70
2022,07,25,03,01,17.70
2022,07,25,03,02,17.70
2022,07,25,03,03,17.70
2022,07,25,03,04,17.70
2022,07,25,03,05,17.70
2022,07,25,03,06,17.70
2022,07,25,03,07,17.70
2022,07,25,03,08,17.70
2022,07,25,03,09,17.70
2022,07,25,03,10,17.60
2022,07,25,03,11,17.60
2022,07,25,03,12,17.60
2022,07,25,03,13,17.60
2022,07,25,03,14,17.60
2022,07,25,03,15,17.60
2022,07,25,03,16,17.60
2022,07,25,03,17,17.60
2022,07,25,03,18,17.60
2022,07,25,03,19,17.60
2022,07,25,03,20,17.60
2022,07,25,03,21,17.50
2022,07,25,03,22,17.50
2022,07,25,03,23,17.50
2022,07,25,03,24,17.40
2022,07,25,03,25,17.40
2022,07,25,03,26,17.40
2022,07,25,03,27,17.40
2022,07,25,03,28,17.40
2022,07,25,03,29,17.40
2022,07,25,03,30,17.40
2022,07,25,03,31,17.40
2022,07,25,03,32,17.40
2022,07,25,03,33,17.40
2022,07,25,03,34,17.40
2022,07,25,03,35,17.40
2022,07,25,03,36,17.30
2022,07,25,03,37,17.30
2022,07,25,03,38,17.30
2022,07,25,03,39,17.30
2022,07,25,03,40,17.30
2022,07,25,03,41,17.30
2022,07,25,03,42,17.30
2022,07,25,03,43,17.30
2022,07,25,03,44,17.30
2022,07,25,03,45,17.30
2022,07,25,03,46,17.30
2022,07,25,03,47,17.30
2022,07,25,03,48,17.30
2022,07,25,03,49,17.30
2022,07,25,03,50,17.30
2022,07,25,03,51,17.30
2022,07,25,03,52,17.30
2022,07,25,03,53,17.30
2022,07,25,03,54,17.40
2022,07,25,03,55,17.40
2022,07,25,03,56,17.40
2022,07,25,03,57,17.40
2022,07,25,03,58,17.40
2022,07,25,03,59,17.40
2022,07,25,04,00,17.40
2022,07,25,04,01,17.40
2022,07,25,04,02,17.30
2022,07,25,04,03,17.30
2022,07,25,04,04,17.30
2022,07,25,04,05,17.30
2022,07,25,04,06,17.30
2022,07,25,04,07,17.30
2022,07,25,04,08,17.30
2022,07,25,04,09,17.30
2022,07,25,04,10,17.30
2022,07,25,04,11,17.30
2022,07,25,04,12,17.30
2022,07,25,04,13,17.30
2022,07,25,04,14,17.30
2022,07,25,04,15,17.30
2022,07,25,04,16,17.30
2022,07,25,04,17,17.30
2022,07,25,04,18,17.30
2022,07,25,04,19,17.30
2022,07,25,04,20,17.30
2022,07,25,04,21,17.30
2022,07,25,04,22,17.30
2022,07,25,04,23,17.30
2022,07,25,04,24,17.30
2022,07,25,04,25,17.30
2022,07,25,04,26,17.30
2022,07,25,04,27,17.30
2022,07,25,04,28,17.30
2022,07,25,04,29,17.30
2022,07,25,04,30,17.30
2022,07,25,04,31,17.20
2022,07,25,04,32,17.20
2022,07,25,04,33,17.20
2022,07,25,04,34,17.20
2022,07,25,04,35,17.20
2022,07,25,04,36,17.20
2022,07,25,04,37,17.20
2022,07,25,04,38,17.20
2022,07,25,04,39,17.20
2022,07,25,04,40,17.20
2022,07,25,04,41,17.20
2022,07,25,04,42,17.10
2022,07,25,04,43,17.10
2022,07,25,04,44,17.10
2022,07,25,04,45,17.10
2022,07,25,04,46,17.10
2022,07,25,04,47,17.10
2022,07,25,04,48,17.10
2022,07,25,04,49,17.10
2022,07,25,04,50,17.10
2022,07,25,04,51,17.10
2022,07,25,04,52,17.10
2022,07,25,04,53,17.10
2022,07,25,04,54,17.10
2022,07,25,04,55,17.10
2022,07,25,04,56,17.10
2022,07,25,04,57,17.10
2022,07,25,04,58,17.10
2022,07,25,04,59,17.10
2022,07,25,05,00,17.10
2022,07,25,05,01,17.10
2022,07,25,05,02,17.10
2022,07,25,05,03,17.10
2022,07,25,05,04,17.10
2022,07,25,05,05,17.00
2022,07,25,05,06,17.00
2022,07,25,05,07,17.00
2022,07,25,05,08,17.00
2022,07,25,05,09,17.00
2022,07,25,05,10,17.00
2022,07,25,05,11,17.00
2022,07,25,05,12,17.00
2022,07,25,05,13,16.90
2022,07,25,05,14,16.90
2022,07,25,05,15,16.90
2022,07,25,05,16,16.90
2022,07,25,05,17,16.90
2022,07,25,05,18,16.90
2022,07,25,05,19,16.90
2022,07,25,05,20,16.90
2022,07,25,05,21,16.90
2022,07,25,05,22,16.90
2022,07,25,05,23,16.90
2022,07,25,05,24,16.90
2022,07,25,05,25,16.90
2022,07,25,05,26,16.90
2022,07,25,05,27,16.90
2022,07,25,05,28,16.80
2022,07,25,05,29,16.80
2022,07,25,05,30,16.80
2022,07,25,05,31,16.80
2022,07,25,05,32,16.80
2022,07,25,05,33,16.80
2022,07,25,05,34,16.80
2022,07,25,05,35,16.80
2022,07,25,05,36,16.80
2022,07,25,05,37,16.80
2022,07,25,05,38,16.80
2022,07,25,05,39,16.80
2022,07,25,05,40,16.80
2022,07,25,05,41,16.80
2022,07,25,05,42,16.80
2022,07,25,05,43,16.80
2022,07,25,05,44,16.80
2022,07,25,05,45,16.80
2022,07,25,05,46,16.80
2022,07,25,05,47,16.80
2022,07,25,05,48,16.70
2022,07,25,05,49,16.70
2022,07,25,05,50,16.70
2022,07,25,05,51,16.70
2022,07,25,05,52,16.70
2022,07,25,05,53,16.70
2022,07,25,05,54,16.70
2022,07,25,05,55,16.70
2022,07,25,05,56,16.70
2022,07,25,05,57,16.60
2022,07,25,05,58,16.60
2022,07,25,05,59,16.60
2022,07,25,06,00,16.60
2022,07,25,06,01,16.60
2022,07,25,06,02,16.60
2022,07,25,06,03,16.60
2022,07,25,06,04,16.60
2022,07,25,06,05,16.60
2022,07,25,06,06,16.60
2022,07,25,06,07,16.60
2022,07,25,06,08,16.60
2022,07,25,06,09,16.60
2022,07,25,06,10,16.60
2022,07,25,06,11,16.60
2022,07,25,06,12,16.60
2022,07,25,06,13,16.60
2022,07,25,06,14,16.60
2022,07,25,06,15,16.60
2022,07,25,06,16,16.60
2022,07,25,06,17,16.60
2022,07,25,06,18,16.70
2022,07,25,06,19,16.70
2022,07,25,06,20,16.70
2022,07,25,06,21,16.70
2022,07,25,06,22,16.70
2022,07,25,06,23,16.70
2022,07,25,06,24,16.60
2022,07,25,06,25,16.60
2022,07,25,06,26,16.60
2022,07,25,06,27,16.60
2022,07,25,06,28,16.60
2022,07,25,06,29,16.60
2022,07,25,06,30,16.60
2022,07,25,06,31,16.60
2022,07,25,06,32,16.60
2022,07,25,06,33,16.60
2022,07,25,06,34,16.60
2022,07,25,06,35,16.60
2022,07,25,06,36,16.60
2022,07,25,06,37,16.60
2022,07,25,06,38,16.60
2022,07,25,06,39,16.60
2022,07,25,06,40,16.60
2022,07,25,06,41,16.60
2022,07,25,06,42,16.60
2022,07,25,06,43,16.60
2022,07,25,06,44,16.60
2022,07,25,06,45,16.60
2022,07,25,06,46,16.60
2022,07,25,06,47,16.60
2022,07,25,06,48,16.60
2022,07,25,06,49,16.60
2022,07,25,06,50,16.60
2022,07,25,06,51,16.60
2022,07,25,06,52,16.60
2022,07,25,06,53,16.60
2022,07,25,06,54,16.60
2022,07,25,06,55,16.60
2022,07,25,06,56,16.60
2022,07,25,06,57,16.70
2022,07,25,06,58,16.70
2022,07,25,06,59,16.70
2022,07,25,07,00,16.70
2022,07,25,07,01,16.70
2022,07,25,07,02,16.70
2022,07,25,07,03,16.70
2022,07,25,07,04,16.70
2022,07,25,07,05,16.70
2022,07,25,07,06,16.70
2022,07,25,07,07,16.70
2022,07,25,07,08,16.70
2022,07,25,07,09,16.70
2022,07,25,07,10,16.70
2022,07,25,07,11,16.70
2022,07,25,07,12,16.70
2022,07,25,07,13,16.70
2022,07,25,07,14,16.70
2022,07,25,07,15,16.70
2022,07,25,07,16,16.70
2022,07,25,07,17,16.80
2022,07,25,07,18,16.80
2022,07,25,07,19,16.80
2022,07,25,07,20,16.80
2022,07,25,07,21,16.80
2022,07,25,07,22,16.80
2022,07,25,07,23,16.80
2022,07,25,07,24,16.80
2022,07,25,07,25,16.80
2022,07,25,07,26,16.80
2022,07,25,07,27,16.90
2022,07,25,07,28,16.90
2022,07,25,07,29,16.90
2022,07,25,07,30,16.90
2022,07,25,07,31,16.90
2022,07,25,07,32,16.90
2022,07,25,07,33,17.00
2022,07,25,07,34,17.00
2022,07,25,07,35,17.00
2022,07,25,07,36,17.00
2022,07,25,07,37,17.10
2022,07,25,07,38,17.10
2022,07,25,07,39,17.10
2022,07,25,07,40,17.10
2022,07,25,07,41,17.10
2022,07,25,07,42,17.10
2022,07,25,07,43,17.10
2022,07,25,07,44,17.20
2022,07,25,07,45,17.20
2022,07,25,07,46,17.20
2022,07,25,07,47,17.20
2022,07,25,07,48,17.20
2022,07,25,07,49,17.30
2022,07,25,07,50,17.30
2022,07,25,07,51,17.30
2022,07,25,07,52,17.30
2022,07,25,07,53,17.30
2022,07,25,07,54,17.30
2022,07,25,07,55,17.30
2022,07,25,07,56,17.40
2022,07,25,07,57,17.40
2022,07,25,07,58,17.40
2022,07,25,07,59,17.40
2022,07,25,08,00,17.50
2022,07,25,08,01,17.50
2022,07,25,08,02,17.50
2022,07,25,08,03,17.50
2022,07,25,08,04,17.60
2022,07,25,08,05,17.60
2022,07,25,08,06,17.60
2022,07,25,08,07,17.60
2022,07,25,08,08,17.70
2022,07,25,08,09,17.70
2022,07,25,08,10,17.70
2022,07,25,08,11,17.80
2022,07,25,08,12,17.80
2022,07,25,08,13,17.80
2022,07,25,08,14,17.90
2022,07,25,08,15,17.90
2022,07,25,08,16,17.90
2022,07,25,08,17,18.00
2022,07,25,08,18,18.10
2022,07,25,08,19,18.10
2022,07,25,08,20,18.10
2022,07,25,08,21,18.10
2022,07,25,08,22,18.10
2022,07,25,08,23,18.10
2022,07,25,08,24,18.10
2022,07,25,08,25,18.20
2022,07,25,08,26,18.20
2022,07,25,08,27,18.20
2022,07,25,08,28,18.20
2022,07,25,08,29,18.30
2022,07,25,08,30,18.30
2022,07,25,08,31,18.30
2022,07,25,08,32,18.30
2022,07,25,08,33,18.30
2022,07,25,08,34,18.30
2022,07,25,08,35,18.30
2022,07,25,08,36,18.40
2022,07,25,08,37,18.40
2022,07,25,08,38,18.50
2022,07,25,08,39,18.50
2022,07,25,08,40,18.60
2022,07,25,08,41,18.60
2022,07,25,08,42,18.60
2022,07,25,08,43,18.60
2022,07,25,08,44,18.60
2022,07,25,08,45,18.60
2022,07,25,08,46,18.60
2022,07,25,08,47,18.60
2022,07,25,08,48,18.60
2022,07,25,08,49,18.70
2022,07,25,08,50,18.70
2022,07,25,08,51,18.70
2022,07,25,08,52,18.80
2022,07,25,08,53,18.80
2022,07,25,08,54,18.90
2022,07,25,08,55,18.90
2022,07,25,08,56,18.90
2022,07,25,08,57,18.90
2022,07,25,08,58,19.00
2022,07,25,08,59,19.00
2022,07,25,09,00,19.10
2022,07,25,09,01,19.10
2022,07,25,09,02,19.10
2022,07,25,09,03,19.10
2022,07,25,09,04,19.20
2022,07,25,09,05,19.20
2022,07,25,09,06,19.20
2022,07,25,09,07,19.30
2022,07,25,09,08,19.30
2022,07,25,09,09,19.30
2022,07,25,09,10,19.40
2022,07,25,09,11,19.40
2022,07,25,09,12,19.50
2022,07,25,09,13,19.60
2022,07,25,09,14,19.60
2022,07,25,09,15,19.60
2022,07,25,09,16,19.60
2022,07,25,09,17,19.60
2022,07,25,09,18,19.60
2022,07,25,09,19,19.60
2022,07,25,09,20,19.60
2022,07,25,09,21,19.60
2022,07,25,09,22,19.60
2022,07,25,09,23,19.70
2022,07,25,09,24,19.70
2022,07,25,09,25,19.70
2022,07,25,09,26,19.80
2022,07,25,09,27,19.80
2022,07,25,09,28,19.80
2022,07,25,09,29,19.90
2022,07,25,09,30,19.90
2022,07,25,09,31,20.00
2022,07,25,09,32,20.00
2022,07,25,09,33,20.00
2022,07,25,09,34,20.00
2022,07,25,09,35,20.10
2022,07,25,09,36,20.00
2022,07,25,09,37,20.00
2022,07,25,09,38,19.90
2022,07,25,09,39,19.90
2022,07,25,09,40,19.90
2022,07,25,09,41,19.90
2022,07,25,09,42,20.00
2022,07,25,09,43,20.10
2022,07,25,09,44,20.10
2022,07,25,09,45,20.10
2022,07,25,09,46,20.10
2022,07,25,09,47,20.10
2022,07,25,09,48,20.10
2022,07,25,09,49,20.10
2022,07,25,09,50,20.10
2022,07,25,09,51,20.10
2022,07,25,09,52,20.10
2022,07,25,09,53,20.10
2022,07,25,09,54,20.10
2022,07,25,09,55,20.10
2022,07,25,09,56,20.20
2022,07,25,09,57,20.30
2022,07,25,09,58,20.30
2022,07,25,09,59,20.30
2022,07,25,10,00,20.40
2022,07,25,10,01,20.50
2022,07,25,10,02,20.60
2022,07,25,10,03,20.60
2022,07,25,10,04,20.70
2022,07,25,10,05,20.70
2022,07,25,10,06,20.80
2022,07,25,10,07,20.80
2022,07,25,10,08,20.90
2022,07,25,10,09,20.90
2022,07,25,10,10,20.90
2022,07,25,10,11,21.00
2022,07,25,10,12,21.10
2022,07,25,10,13,21.10
2022,07,25,10,14,21.10
2022,07,25,10,15,21.20
2022,07,25,10,16,21.20
2022,07,25,10,17,21.30
2022,07,25,10,18,21.30
2022,07,25,10,19,21.30
2022,07,25,10,20,21.30
2022,07,25,10,21,21.30
2022,07,25,10,22,21.30
2022,07,25,10,23,21.30
2022,07,25,10,24,21.40
2022,07,25,10,25,21.40
2022,07,25,10,26,21.40
2022,07,25,10,27,21.40
2022,07,25,10,28,21.40
2022,07,25,10,29,21.40
2022,07,25,10,30,21.50
2022,07,25,10,31,21.60
2022,07,25,10,32,21.70
2022,07,25,10,33,21.80
2022,07,25,10,34,21.90
2022,07,25,10,35,21.90
2022,07,25,10,36,22.00
2022,07,25,10,37,22.10
2022,07,25,10,38,22.10
2022,07,25,10,39,22.10
2022,07,25,10,40,22.10
2022,07,25,10,41,22.10
2022,07,25,10,42,22.10
2022,07,25,10,43,22.10
2022,07,25,10,44,22.10
2022,07,25,10,45,22.10
2022,07,25,10,46,22.00
2022,07,25,10,47,21.90
2022,07,25,10,48,21.90
2022,07,25,10,49,21.80
2022,07,25,10,50,21.80
2022,07,25,10,51,21.80
2022,07,25,10,52,21.80
2022,07,25,10,53,21.80
2022,07,25,10,54,21.90
2022,07,25,10,55,21.90
2022,07,25,10,56,22.00
2022,07,25,10,57,22.00
2022,07,25,10,58,22.00
2022,07,25,10,59,22.00
2022,07,25,11,00,22.00
2022,07,25,11,01,22.10
2022,07,25,11,02,22.00
2022,07,25,11,03,21.90
2022,07,25,11,04,21.90
2022,07,25,11,05,21.80
2022,07,25,11,06,21.80
2022,07,25,11,07,21.90
2022,07,25,11,08,21.90
2022,07,25,11,09,22.00
2022,07,25,11,10,22.10
2022,07,25,11,11,22.20
2022,07,25,11,12,22.30
2022,07,25,11,13,22.30
2022,07,25,11,14,22.40
2022,07,25,11,15,22.40
2022,07,25,11,16,22.50
2022,07,25,11,17,22.50
2022,07,25,11,18,22.50
2022,07,25,11,19,22.60
2022,07,25,11,20,22.70
2022,07,25,11,21,22.70
2022,07,25,11,22,22.80
2022,07,25,11,23,22.80
2022,07,25,11,24,22.90
2022,07,25,11,25,23.00
2022,07,25,11,26,23.00
2022,07,25,11,27,23.10
2022,07,25,11,28,23.10
2022,07,25,11,29,23.00
2022,07,25,11,30,23.00
2022,07,25,11,31,23.00
2022,07,25,11,32,23.00
2022,07,25,11,33,23.10
2022,07,25,11,34,23.10
2022,07,25,11,35,23.10
2022,07,25,11,36,23.20
2022,07,25,11,37,23.20
2022,07,25,11,38,23.30
2022,07,25,11,39,23.30
2022,07,25,11,40,23.40
2022,07,25,11,41,23.40
2022,07,25,11,42,23.40
2022,07,25,11,43,23.50
2022,07,25,11,44,23.60
2022,07,25,11,45,23.60
2022,07,25,11,46,23.70
2022,07,25,11,47,23.70
2022,07,25,11,48,23.80
2022,07,25,11,49,23.80
2022,07,25,11,50,23.80
2022,07,25,11,51,23.80
2022,07,25,11,52,23.80
2022,07,25,11,53,23.80
2022,07,25,11,54,23.80
2022,07,25,11,55,23.80
2022,07,25,11,56,23.80
2022,07,25,11,57,23.90
2022,07,25,11,58,24.00
2022,07,25,11,59,24.10
2022,07,25,12,00,24.10
2022,07,25,12,01,24.20
2022,07,25,12,02,24.20
2022,07,25,12,03,24.30
2022,07,25,12,04,24.30
2022,07,25,12,05,24.30
2022,07,25,12,06,24.20
2022,07,25,12,07,24.20
2022,07,25,12,08,24.20
2022,07,25,12,09,24.30
2022,07,25,12,10,24.40
2022,07,25,12,11,24.40
2022,07,25,12,12,24.50
2022,07,25,12,13,24.50
2022,07,25,12,14,24.50
2022,07,25,12,15,24.40
2022,07,25,12,16,24.40
2022,07,25,12,17,24.30
2022,07,25,12,18,24.30
2022,07,25,12,19,24.40
2022,07,25,12,20,24.50
2022,07,25,12,21,24.60
2022,07,25,12,22,24.70
2022,07,25,12,23,24.80
2022,07,25,12,24,24.80
2022,07,25,12,25,24.80
2022,07,25,12,26,24.70
2022,07,25,12,27,24.70
2022,07,25,12,28,24.70
2022,07,25,12,29,24.70
2022,07,25,12,30,24.70
2022,07,25,12,31,24.70
2022,07,25,12,32,24.70
2022,07,25,12,33,24.70
2022,07,25,12,34,24.80
2022,07,25,12,35,24.90
2022,07,25,12,36,25.00
2022,07,25,12,37,25.10
2022,07,25,12,38,25.20
2022,07,25,12,39,25.30
2022,07,25,12,40,25.40
2022,07,25,12,41,25.40
2022,07,25,12,42,25.50
2022,07,25,12,43,25.50
2022,07,25,12,44,25.40
2022,07,25,12,45,25.50
2022,07,25,12,46,25.40
2022,07,25,12,47,25.40
2022,07,25,12,48,25.40
2022,07,25,12,49,25.40
2022,07,25,12,50,25.40
2022,07,25,12,51,25.50
2022,07,25,12,52,25.50
2022,07,25,12,53,25.60
2022,07,25,12,54,25.70
2022,07,25,12,55,25.80
2022,07,25,12,56,25.90
2022,07,25,12,57,25.90
2022,07,25,12,58,26.00
2022,07,25,12,59,26.10
2022,07,25,13,00,26.10
2022,07,25,13,01,26.20
2022,07,25,13,02,26.20
2022,07,25,13,03,26.20
2022,07,25,13,04,26.20
2022,07,25,13,05,26.20
2022,07,25,13,06,26.10
2022,07,25,13,07,26.10
2022,07,25,13,08,26.10
2022,07,25,13,09,26.10
2022,07,25,13,10,26.10
2022,07,25,13,11,26.10
2022,07,25,13,12,26.20
2022,07,25,13,13,26.20
2022,07,25,13,14,26.30
2022,07,25,13,15,26.50
2022,07,25,13,16,26.60
2022,07,25,13,17,26.60
2022,07,25,13,18,26.70
2022,07,25,13,19,26.70
2022,07,25,13,20,26.70
2022,07,25,13,21,26.70
2022,07,25,13,22,26.70
2022,07,25,13,23,26.80
2022,07,25,13,24,26.80
2022,07,25,13,25,26.90
2022,07,25,13,26,26.90
2022,07,25,13,27,26.90
2022,07,25,13,28,26.90
2022,07,25,13,29,26.90
2022,07,25,13,30,27.00
2022,07,25,13,31,27.00
2022,07,25,13,32,27.10
2022,07,25,13,33,27.20
2022,07,25,13,34,27.30
2022,07,25,13,35,27.30
2022,07,25,13,36,27.20
2022,07,25,13,37,27.20
2022,07,25,13,38,27.10
2022,07,25,13,39,27.10
2022,07,25,13,40,27.10
2022,07,25,13,41,27.20
2022,07,25,13,42,27.20
2022,07,25,13,43,27.20
2022,07,25,13,44,27.10
2022,07,25,13,45,26.90
2022,07,25,13,46,26.90
2022,07,25,13,47,26.80
2022,07,25,13,48,26.90
2022,07,25,13,49,27.00
2022,07,25,13,50,27.10
2022,07,25,13,51,27.20
2022,07,25,13,52,27.20
2022,07,25,13,53,27.20
2022,07,25,13,54,27.30
2022,07,25,13,55,27.30
2022,07,25,13,56,27.30
2022,07,25,13,57,27.30
2022,07,25,13,58,27.30
2022,07,25,13,59,27.30
2022,07,25,14,00,27.30
2022,07,25,14,01,27.40
2022,07,25,14,02,27.50
2022,07,25,14,03,27.60
2022,07,25,14,04,27.60
2022,07,25,14,05,27.70
2022,07,25,14,06,27.80
2022,07,25,14,07,27.90
2022,07,25,14,08,28.00
2022,07,25,14,09,28.00
2022,07,25,14,10,28.10
2022,07,25,14,11,28.20
2022,07,25,14,12,28.30
2022,07,25,14,13,28.30
2022,07,25,14,14,28.40
2022,07,25,14,15,28.40
2022,07,25,14,16,28.40
2022,07,25,14,17,28.40
2022,07,25,14,18,28.40
2022,07,25,14,19,28.40
2022,07,25,14,20,28.40
2022,07,25,14,21,28.40
2022,07,25,14,22,28.40
2022,07,25,14,23,28.40
2022,07,25,14,24,28.40
2022,07,25,14,25,28.40
2022,07,25,14,26,28.40
2022,07,25,14,27,28.40
2022,07,25,14,28,28.40
2022,07,25,14,29,28.40
2022,07,25,14,30,28.40
2022,07,25,14,31,28.50
2022,07,25,14,32,28.60
2022,07,25,14,33,28.60
2022,07,25,14,34,28.60
2022,07,25,14,35,28.60
2022,07,25,14,36,28.70
2022,07,25,14,37,28.70
2022,07,25,14,38,28.70
2022,07,25,14,39,28.70
2022,07,25,14,40,28.70
2022,07,25,14,41,28.80
2022,07,25,14,42,28.90
2022,07,25,14,43,28.90
2022,07,25,14,44,28.90
2022,07,25,14,45,28.80
2022,07,25,14,46,28.70
2022,07,25,14,47,28.60
2022,07,25,14,48,28.60
2022,07,25,14,49,28.50
2022,07,25,14,50,28.50
2022,07,25,14,51,28.50
2022,07,25,14,52,28.60
2022,07,25,14,53,28.60
2022,07,25,14,54,28.70
2022,07,25,14,55,28.90
2022,07,25,14,56,29.00
2022,07,25,14,57,29.10
2022,07,25,14,58,29.20
2022,07,25,14,59,29.20
2022,07,25,15,00,29.20
2022,07,25,15,01,29.10
2022,07,25,15,02,29.10
2022,07,25,15,03,29.10
2022,07,25,15,04,29.10
2022,07,25,15,05,29.20
2022,07,25,15,06,29.20
2022,07,25,15,07,29.20
2022,07,25,15,08,29.20
2022,07,25,15,09,29.30
2022,07,25,15,10,29.50
2022,07,25,15,11,29.60
2022,07,25,15,12,29.70
2022,07,25,15,13,29.70
2022,07,25,15,14,29.70
2022,07,25,15,15,29.70
2022,07,25,15,16,29.70
2022,07,25,15,17,29.60
2022,07,25,15,18,29.60
2022,07,25,15,19,29.60
2022,07,25,15,20,29.60
2022,07,25,15,21,29.50
2022,07,25,15,22,29.50
2022,07,25,15,23,29.60
2022,07,25,15,24,29.70
2022,07,25,15,25,29.80
2022,07,25,15,26,29.80
2022,07,25,15,27,29.80
2022,07,25,15,28,29.70
2022,07,25,15,29,29.70
2022,07,25,15,30,29.60
2022,07,25,15,31,29.60
2022,07,25,15,32,29.50
2022,07,25,15,33,29.40
2022,07,25,15,34,29.30
2022,07,25,15,35,29.10
2022,07,25,15,36,29.00
2022,07,25,15,37,28.90
2022,07,25,15,38,28.90
2022,07,25,15,39,28.90
2022,07,25,15,40,28.90
2022,07,25,15,41,29.00
2022,07,25,15,42,29.10
2022,07,25,15,43,29.20
2022,07,25,15,44,29.20
2022,07,25,15,45,29.30
2022,07,25,15,46,29.30
2022,07,25,15,47,29.30
2022,07,25,15,48,29.30
2022,07,25,15,49,29.40
2022,07,25,15,50,29.50
2022,07,25,15,51,29.60
2022,07,25,15,52,29.70
2022,07,25,15,53,29.70
2022,07,25,15,54,29.80
2022,07,25,15,55,29.90
2022,07,25,15,56,29.90
2022,07,25,15,57,30.00
2022,07,25,15,58,30.00
2022,07,25,15,59,30.10
2022,07,25,16,00,30.10
2022,07,25,16,01,30.10
2022,07,25,16,02,30.10
2022,07,25,16,03,30.10
2022,07,25,16,04,30.10
2022,07,25,16,05,30.10
2022,07,25,16,06,30.00
2022,07,25,16,07,30.00
2022,07,25,16,08,29.90
2022,07,25,16,09,29.80
2022,07,25,16,10,29.80
2022,07,25,16,11,29.80
2022,07,25,16,12,29.80
2022,07,25,16,13,29.70
2022,07,25,16,14,29.70
2022,07,25,16,15,29.70
2022,07,25,16,16,29.80
2022,07,25,16,17,29.80
2022,07,25,16,18,29.90
2022,07,25,16,19,29.90
2022,07,25,16,20,29.90
2022,07,25,16,21,30.00
2022,07,25,16,22,30.00
2022,07,25,16,23,30.10
2022,07,25,16,24,30.10
2022,07,25,16,25,30.10
2022,07,25,16,26,30.10
2022,07,25,16,27,30.20
2022,07,25,16,28,30.20
2022,07,25,16,29,30.20
2022,07,25,16,30,30.30
2022,07,25,16,31,30.30
2022,07,25,16,32,30.30
2022,07,25,16,33,30.20
2022,07,25,16,34,30.10
2022,07,25,16,35,30.10
2022,07,25,16,36,30.00
2022,07,25,16,37,30.00
2022,07,25,16,38,30.00
2022,07,25,16,39,29.90
2022,07,25,16,40,29.90
2022,07,25,16,41,30.00
2022,07,25,16,42,29.90
2022,07,25,16,43,30.00
2022,07,25,16,44,30.00
2022,07,25,16,45,30.00
2022,07,25,16,46,30.10
2022,07,25,16,47,30.20
2022,07,25,16,48,30.30
2022,07,25,16,49,30.30
2022,07,25,16,50,30.40
2022,07,25,16,51,30.40
2022,07,25,16,52,30.40
2022,07,25,16,53,30.40
2022,07,25,16,54,30.40
2022,07,25,16,55,30.40
2022,07,25,16,56,30.40
2022,07,25,16,57,30.40
2022,07,25,16,58,30.50
2022,07,25,16,59,30.50
2022,07,25,17,00,30.50
2022,07,25,17,01,30.50
2022,07,25,17,02,30.50
2022,07,25,17,03,30.40
2022,07,25,17,04,30.40
2022,07,25,17,05,30.40
2022,07,25,17,06,30.40
2022,07,25,17,07,30.40
2022,07,25,17,08,30.40
2022,07,25,17,09,30.40
2022,07,25,17,10,30.40
2022,07,25,17,11,30.50
2022,07,25,17,12,30.50
2022,07,25,17,13,30.60
2022,07,25,17,14,30.60
2022,07,25,17,15,30.60
2022,07,25,17,16,30.60
2022,07,25,17,17,30.60
2022,07,25,17,18,30.50
2022,07,25,17,19,30.40